Location: Artiguedieu
(43.5000°N, 0.5454°E)
Time: 22:43:01
(UTC+00:00)

Transit 2A Rocket - Pass Details

Date: 06 August 2021
Orbit: 586 x 916 km, 66.7° (Epoch: 19 September)

Event Time Altitude Azimuth Distance (km) Brightness Sun altitude
Rises 13:40:05 0° 237° (WSW) 2,864 8.5 56.2°
Reaches altitude 10° 13:42:27 10° 248° (WSW) 1,996 7.9 55.9°
Maximum altitude 13:46:30 32° 312° (NW) 1,124 6.4 55.3°
Drops below altitude 10° 13:50:53 10° 16° (NNE) 2,168 7.2 54.7°
Sets 13:53:34 0° 26° (NNE) 3,151 7.9 54.4°
